SCP
0 0 0 0 0 0 0 0 0 0 0 0 0 0 0 1 1 1 1 1 1 1 1 1 1 1 1 1 1 1 1 1 1 1 1 1 1 1 1 1 1 1 2
0 0 0 0 0 0 0 0 0 0 0 0 0 0 0 0 0 1 1 1 1 1 1 1 1 1 1 1 1 1 1 1 1 1 1 1 1 1 1 1 1 1 2
0 0 0 0 0 0 0 0 0 0 0 0 0 0 0 0 0 0 0 0 1 1 0 0 1 1 1 1 1 1 0 0 0 1 1 1 1 1 1 1 1 1 2
0 0 0 0 0 0 0 0 0 0 0 0 0 0 0 0 0 0 0 0 0 0 0 0 0 1 1 1 1 1 1 1 1 1 1 1 1 1 1 1 1 2 2
0 0 0 0 0 0 0 0 0 0 0 0 0 0 0 0 0 0 0 0 0 0 0 0 0 0 1 1 1 1 1 0 0 0 1 1 1 1 1 1 2 2 3
0 0 0 0 0 0 0 0 0 0 0 0 0 0 0 0 0 0 0 0 0 0 0 0 0 0 0 0 0 0 0 0 0 0 0 0 0 0 1 1 1 2 3
0 0 0 0 0 0 0 0 0 0 0 0 0 0 0 0 0 0 0 0 0 0 0 0 0 0 0 0 0 0 0 0 0 0 0 0 0 0 1 1 1 2 2
0 0 0 0 0 0 0 0 0 0 0 0 0 0 0 0 0 0 0 0 0 0 0 0 0 0 0 0 0 0 0 0 0 0 0 0 0 0 1 1 1 2 2
0 0 0 0 0 0 0 0 0 0 0 0 0 0 0 0 0 0 0 0 0 0 0 0 0 0 0 0 0 0 0 0 0 0 0 0 0 0 1 1 1 1 1
0 0 0 0 0 0 0 0 0 0 0 0 0 0 0 0 0 0 0 0 0 0 0 0 0 0 0 0 0 0 0 0 0 0 0 0 0 0 0 1 1 1 1
0 0 0 0 0 0 0 0 0 0 0 0 0 0 0 0 0 0 0 0 0 0 0 0 0 0 0 0 0 0 0 0 0 0 0 0 0 0 0 0 0 0 0
0 0 0 0 0 0 0 0 0 0 0 0 0 0 0 0 0 0 0 0 0 0 0 0 0 0 0 0 0 0 0 0 0 0 0 0 0 0 0 0 0 0 0
0 0 0 0 0 0 0 0 0 0 0 0 0 0 0 0 0 0 0 0 0 0 0 0 0 0 0 0 0 0 0 0 0 0 0 0 1 1 1 0 0 0 0
0 0 0 0 0 0 0 0 0 0 0 0 0 0 0 0 0 0 0 0 0 0 0 0 0 0 0 0 0 0 0 0 0 0 0 0 1 1 1 1 0 0 0
0 0 0 0 0 0 0 0 0 0 0 0 0 0 0 0 0 0 0 0 0 0 0 0 0 0 0 0 0 0 0 0 0 0 0 0 1 1 1 1 1 1 0
0 0 0 0 0 0 0 0 0 0 0 0 0 0 0 0 0 0 0 0 0 0 0 0 0 0 0 0 0 0 0 0 0 0 0 0 0 1 1 1 1 1 1
0 0 0 0 0 0 0 0 0 0 0 0 0 0 0 0 0 0 0 0 0 0 0 0 0 0 0 0 0 0 0 0 0 0 0 0 0 0 1 1 1 1 1
0 0 0 0 0 0 0 0 0 0 0 0 0 0 0 0 0 0 0 0 0 0 0 0 0 0 0 0 0 0 0 0 0 0 0 0 0 0 0 0 1 1 1
0 0 0 0 0 0 0 0 0 0 0 0 0 0 0 0 0 0 0 0 0 0 0 0 0 0 0 0 0 0 0 0 0 0 0 0 0 0 0 0 0 0 1
0 0 0 0 0 0 0 0 0 0 0 0 0 0 0 0 0 0 0 0 0 0 0 0 0 0 0 0 0 0 0 0 0 0 0 0 0 0 0 0 0 0 0
0 0 0 0 0 0 0 0 0 0 0 0 0 0 0 0 0 0 0 0 0 0 0 0 0 0 0 0 0 0 0 0 0 0 0 0 0 0 0 0 0 0 0
0 0 0 0 0 0 0 0 0 0 0 0 0 0 0 0 0 0 0 0 0 0 0 0 0 0 0 0 0 0 0 0 0 0 0 0 0 0 0 0 0 0 0
0 0 0 0 0 0 0 0 0 0 0 0 0 0 0 0 0 0 0 0 0 0 0 0 0 0 0 0 0 0 0 0 0 0 0 0 0 0 0 0 0 0 0
0 0 0 0 0 0 0 0 0 0 0 0 0 0 0 0 0 0 0 0 0 0 0 0 0 0 0 0 0 0 0 0 0 0 0 0 0 0 0 0 0 0 0
0 0 0 0 0 0 0 0 0 0 0 0 0 0 0 0 0 0 0 0 0 0 0 0 0 0 0 0 0 0 0 0 0 0 0 0 0 0 0 0 0 0 0
0 0 0 0 0 0 0 0 0 0 0 0 0 0 0 0 0 0 0 0 0 0 0 0 0 0 0 0 0 0 0 0 0 0 0 0 0 0 0 0 0 0 0
Wind_Speed
2 2 2 2 2 2 3 3 3 4 4 4 4 5 4 4 4 3 3 7 8 8 8 8 8 8 8 8 8 7 7 7 7 8 8 8 8 8 8 7 7 7 7
3 3 3 2 2 2 3 3 4 4 4 4 4 4 4 3 3 3 3 4 7 7 7 8 8 8 8 8 8 7 7 7 8 8 8 8 8 8 7 7 7 7 8
3 3 3 2 2 3 3 3 4 4 4 4 4 4 3 3 3 3 3 2 3 6 7 7 8 8 8 8 8 8 7 7 8 8 8 7 7 7 6 6 7 8 8
4 3 3 2 2 3 3 3 3 4 4 3 3 3 3 2 3 3 3 3 2 3 5 8 8 8 8 8 7 7 7 7 7 7 7 7 7 7 6 6 7 8 8
4 3 3 2 3 3 3 3 3 3 3 3 2 3 3 2 2 3 3 3 3 3 3 5 7 8 8 7 7 7 7 7 7 8 8 8 7 7 7 7 7 8 8
3 4 3 3 3 3 3 3 3 3 2 2 3 4 3 3 2 2 2 2 2 3 3 3 3 4 7 7 7 7 7 7 8 8 8 8 8 8 8 8 9 9 9
3 3 3 3 3 3 3 3 3 3 2 2 3 3 4 4 3 2 2 2 2 2 3 3 3 2 3 6 6 7 7 7 7 7 7 7 7 8 9 9 9 9 9
2 3 3 2 2 3 3 3 3 2 1 1 3 2 2 3 3 3 2 2 2 2 3 3 3 3 2 2 4 6 6 6 6 6 6 7 7 7 8 8 9 9 9
2 3 3 3 2 2 2 2 2 3 1 0 1 3 3 1 1 3 3 3 2 2 2 2 2 2 2 2 2 4 5 5 5 5 5 5 6 7 7 8 8 8 8
2 2 3 3 2 2 2 2 2 2 2 1 0 0 2 3 2 1 3 3 3 2 2 2 2 2 2 2 2 4 5 4 4 4 5 5 6 6 6 7 8 8 8
1 2 2 2 2 2 2 2 2 2 2 2 1 1 1 1 2 2 1 2 2 2 1 1 1 1 1 2 1 3 4 4 5 5 5 6 6 6 6 6 7 7 7
0 0 2 2 2 2 2 2 2 2 1 1 1 1 2 2 2 2 2 1 1 1 2 1 1 1 1 1 1 3 3 3 3 4 5 6 6 5 5 6 6 6 6
1 1 1 2 2 2 2 2 2 1 1 1 1 1 1 1 2 2 3 1 0 1 1 1 1 0 0 1 0 2 2 2 2 3 4 4 5 5 4 5 5 5 5
2 2 2 2 2 2 2 2 1 1 1 1 1 1 1 1 2 2 3 3 1 1 1 1 1 0 0 0 0 1 1 2 2 3 3 4 4 4 4 4 4 3 3
2 3 3 2 2 2 2 2 1 1 2 1 1 2 1 1 1 1 2 3 3 2 1 1 1 1 1 0 1 0 1 2 2 3 3 3 3 3 3 3 3 2 2
3 3 3 2 2 2 2 2 1 1 2 1 1 1 1 1 1 1 2 1 2 3 2 2 2 1 1 1 1 0 0 2 2 2 3 3 3 3 3 2 2 1 1
3 3 4 3 3 2 2 2 2 2 2 1 1 2 1 1 1 1 1 1 1 2 2 1 0 0 1 1 0 0 0 0 0 2 2 3 3 2 2 2 1 1 0
3 3 4 3 3 3 2 3 2 2 2 2 1 1 1 1 1 1 1 1 1 2 3 2 1 0 1 1 1 1 0 1 1 1 2 3 2 2 2 2 2 1 1
3 3 3 4 3 3 3 3 3 3 3 2 2 2 2 2 1 1 1 1 1 1 2 3 1 0 0 0 0 1 0 1 1 2 3 3 3 3 3 3 3 2 2
4 3 3 4 4 3 3 3 3 2 2 2 2 2 2 3 3 2 2 2 2 2 2 2 1 0 0 0 1 0 1 1 1 1 1 2 2 3 4 4 4 3 3
4 3 3 3 3 3 3 4 3 3 2 2 2 2 2 3 3 3 2 3 3 3 2 2 1 0 0 0 1 1 1 1 2 1 1 1 1 1 2 4 5 5 5
3 3 3 3 3 3 4 5 4 3 3 3 2 2 1 2 3 3 4 4 5 5 4 3 2 2 3 2 1 1 1 0 2 1 1 2 1 2 2 2 4 5 6
2 2 3 3 3 3 4 5 5 4 3 3 3 2 1 1 2 2 2 3 3 5 6 5 5 5 4 5 4 2 2 2 3 2 1 2 1 2 3 3 5 6 6
2 2 3 3 3 3 4 5 6 4 3 3 3 4 3 2 2 3 2 2 2 3 4 4 5 6 5 5 5 5 4 2 1 1 1 2 2 3 3 3 5 6 6
2 2 3 3 3 3 4 4 5 3 2 2 3 3 3 3 4 4 4 3 2 2 2 3 4 4 5 5 4 3 2 1 1 2 1 2 2 2 2 3 4 5 6
3 2 2 2 3 3 3 4 5 3 2 2 2 2 4 4 4 4 4 4 4 3 1 1 1 2 3 4 5 5 5 3 1 2 2 2 1 1 2 3 2 3 3
Wind_Direction
101 96 81 79 80 78 81 78 77 79 75 72 78 81 77 72 67 52 40 63 70 73 73 73 76 78 83 86 86 82 78 75 72 70 66 63 64 62 62 65 66 67 69
100 97 85 82 79 80 82 85 83 83 75 73 72 77 76 74 71 66 45 45 59 65 66 65 72 76 79 84 83 81 77 75 75 72 70 65 62 60 60 61 64 65 68
93 95 94 87 79 85 85 79 72 71 73 69 63 65 69 70 72 67 55 37 35 53 61 63 68 74 80 82 83 81 78 76 77 75 71 65 59 56 60 64 66 67 68
97 95 92 87 88 85 84 85 78 77 70 64 57 51 62 64 63 68 59 49 43 42 52 63 65 72 78 82 83 82 82 81 81 78 72 64 57 57 61 70 73 73 71
87 93 89 94 95 88 82 96 82 91 88 73 65 55 50 57 52 73 63 54 52 50 45 54 60 64 69 75 80 80 81 81 80 77 72 65 59 54 63 78 80 79 77
87 90 91 84 86 88 76 82 90 80 92 90 76 57 37 40 47 61 62 55 55 59 57 53 45 50 58 66 72 76 77 77 75 74 70 64 61 58 71 79 81 81 81
93 94 96 91 88 94 97 99 96 81 71 90 81 48 25 30 42 43 41 49 47 51 61 60 56 43 38 51 57 68 73 72 72 73 69 65 66 64 71 77 81 82 82
99 109 111 109 103 103 94 93 100 98 83 88 108 92 33 6 8 25 32 55 46 49 60 75 66 58 45 31 39 57 62 70 71 73 73 71 71 74 76 80 85 85 84
100 111 120 118 114 119 133 137 132 131 150 295 127 135 137 193 326 348 8 27 35 52 55 75 80 67 61 44 23 36 55 64 70 71 76 82 82 80 80 83 86 85 82
112 126 134 135 133 132 140 160 142 144 141 173 330 98 150 154 147 348 342 360 19 41 49 80 84 70 61 50 45 49 50 54 64 67 70 87 100 90 84 87 88 88 84
97 124 139 140 140 143 147 146 130 130 143 156 162 113 85 82 119 139 239 328 357 1 27 63 80 73 65 55 39 49 53 51 57 61 64 80 97 97 92 89 89 88 85
324 122 145 140 147 151 160 161 150 145 145 136 135 134 144 149 159 145 164 214 292 321 3 22 69 78 68 44 58 73 76 65 65 67 70 81 90 94 97 97 95 90 85
233 226 163 157 158 166 163 152 139 158 158 148 155 153 145 157 154 144 138 158 209 304 356 360 351 24 83 48 27 79 89 92 94 89 87 90 96 98 102 102 103 97 91
210 199 173 168 171 167 153 139 126 160 147 158 153 142 132 143 137 144 150 145 120 351 346 291 335 293 307 130 95 91 82 98 114 116 112 106 109 113 114 107 104 103 98
203 184 173 167 171 169 163 149 145 172 155 161 161 149 144 159 151 152 150 152 149 165 239 247 242 251 245 187 183 109 108 117 123 128 129 122 116 116 116 116 113 103 88
193 175 174 169 171 170 163 149 151 165 143 165 157 139 135 154 144 147 154 153 143 152 190 225 217 226 218 187 191 157 164 137 139 151 146 138 135 134 130 125 117 112 95
192 184 178 172 174 178 166 150 167 163 162 190 178 162 186 160 145 145 135 135 140 134 154 246 201 160 171 204 300 327 304 119 273 180 168 157 149 148 148 150 145 132 121
196 190 181 174 182 188 179 168 183 184 178 187 197 166 193 157 152 153 144 145 148 144 144 161 201 181 205 208 204 207 229 187 216 212 200 192 189 191 192 194 196 200 216
192 186 176 181 189 193 191 190 185 188 191 195 191 185 199 166 179 175 155 151 156 133 125 141 179 206 275 101 23 314 325 316 246 225 221 222 220 220 221 224 225 229 227
179 184 190 194 194 193 189 184 177 179 188 198 194 190 188 179 186 180 166 166 144 122 117 123 134 190 274 328 109 256 320 319 285 265 256 240 239 240 242 244 240 237 229
187 188 186 195 193 189 194 184 179 175 174 186 199 201 196 193 188 183 173 171 153 144 143 144 157 151 258 264 236 230 236 292 297 274 273 271 258 263 260 257 249 241 231
194 190 190 187 191 211 208 189 171 167 170 174 192 220 218 207 210 202 191 181 173 168 173 174 188 198 224 215 204 199 207 270 284 279 193 273 231 247 261 250 244 238 235
187 190 194 183 192 218 204 189 179 165 173 185 191 199 224 220 194 185 194 195 207 200 188 183 190 208 208 207 187 195 206 210 235 248 193 268 267 254 256 256 244 241 238
191 193 191 188 188 212 200 191 181 166 173 193 197 194 195 214 214 185 175 186 229 238 218 202 203 212 210 200 191 192 196 207 287 275 171 236 269 265 272 263 256 246 243
195 191 185 185 191 221 213 197 176 165 180 211 216 208 197 209 222 194 170 189 233 269 248 215 213 209 202 192 169 139 146 148 268 271 220 202 252 282 283 270 264 252 245
197 187 172 187 196 216 222 200 174 161 182 213 230 232 221 217 218 198 180 183 206 236 228 215 213 214 205 196 184 176 175 177 203 254 230 193 235 272 291 279 270 266 253